Race Results for
Merco Cycling Classic
Merced, CA
(Event Information)
Road Race on 03/03/2011

Note: Ranking points are NOT upgrade points. An explanation of ranking points can be found here.


Men - Pro/Cat 1/2

 Place Points NameCity, StateTime USAC #BibTeam
1136.40Robert Britton   Santa Rosa, CA03:24:05.3 305668  BISSELL Pro Cycling
2138.48Benjamin Jacques-Maynes   Corralitos, CA03:24:05.3 23057  BISSELL Pro Cycling
3140.56Paul Mach (1 - Pro)   Oakland, CA03:24:05.3 238694  BISSELL Pro Cycling
4142.63John Bennett (1 - Cat1)   El Cerrito, CA03:24:13.6 237917  11 California Giant Berry Farms/S
5Jay THOMSON   03:24:13.6  BISSELL Pro Cycling
6146.79Julian Kyer   Boulder Co03:25:35.6 220448  57 Kelly Benefit Strategies-Optum
7148.87K Frank Pipp   Longmont, CO03:30:06.3 164362  BISSELL Pro Cycling
8150.94Sam Bassetti (2 - Cat1)   San Geronimo, CA03:30:06.3 237712  23 Firefighters Cycling
9153.02Alexander Candelario   Bend, OR03:30:06.3 83014  54 Kelly Benefit Strategies-Optum
10155.10Andy Jacques-Maynes (2 - Pro)   Watsonville, CA03:30:06.3 17590  BISSELL Pro Cycling
11Ricky ESCUELA   03:30:06.3  37 Full Circle Sports
12Patrick BEVIN*   03:31:44.2  BISSELL Pro Cycling
13161.33Kyle Wamsley   Alburtis, PA03:31:44.2 37157  BISSELL Pro Cycling
14163.41Shawn Milne   Beverly, MA03:31:44.2 147512  60 Kenda 5 Hour Energy P/B GearGr
15165.49Michael Mathis (3 - Cat1)   Tucson, AZ03:31:44.2 200845  82 RideClean p/b PatentIt.com
16Craig LOGAN*   03:31:44.2  81 Red Truck
17169.64Daniel Bowman (3 - Pro)   Durango, CO03:31:44.2 149353  53 Kelly Benefit Strategies-Optum
18Jeremy VENNELL   03:31:44.2  BISSELL Pro Cycling
19173.80Nathaniel English (4 - Cat1)   Berkeley, CA03:31:44.2 258309  114 Yahoo! Cycling Team
20175.88Evan Huffman   El Dorado Hills, CA03:31:44.2 256955  10 California Giant Berry Farms/S
21177.95Stefano Barberi   Newbury Park, CA03:31:44.2 136696  42 Full Circle Sports
22180.03James Wingert   San Diego, CA03:31:44.2 256481  117 Yahoo! Cycling Team
23Nic HAMILTON   03:31:44.2  48 Jelly Belly p/b Kenda
24Sinelnikau ALIAKSANDR*   03:31:44.2  100 Third Pillar
25186.26Eric Wohlberg   San Jose, CA03:31:44.2 128575  27 Form Fitness
26188.34Danny Heeley   Hermosa Beach, CA03:31:44.2 247147  121 Now/MS Society
27190.42Chris Aten   Flagstaff, AZ03:31:51.3 234254  62 Landis/Trek
28192.50Justin Rossi   Reno, NV03:31:51.3 298550  66 Marc Pro - Strava
29Colin CORNBERG*   03:32:00.1  36 Full Circle Sports
30196.65Andrew Goessling (5 - Cat1)   Richmond, CA03:32:00.1 207262  131 Team Clif Bar
31198.73Nicolas Frey (4 - Pro)   Des Moines Ia03:32:00.1 180819  47 Jamis Sutter Home p/b Colavita
32200.81Collin Samaan (5 - Pro)   Fair Oaks, CA03:32:05.4 196233  106 Wonderful Pistachios Pro Cycli
33202.88Keith Hillier   Millbrae, CA03:32:05.4 276108  67 Marc Pro - Strava
34204.96David Albrecht   Chico, CA03:32:05.4 47091  19 Chico Corsa
35207.04Freddie Rodriguez (6 - Cat1)   Berkeley, CA03:32:05.4 30322  98 Team Specialized Racing Master
36209.12Vincent Owens   Fresno, CA03:32:05.4 242560  84 Sierra Pacific Racing
37211.19Adam Switters   Citrus Heights, CA03:32:11.0 127093  108 XO Communications / Battley Ha
38213.27Nathaniel Wilson   Boulder, CO03:32:13.8 207985  18 California Giant Berry Farms/S
39215.35Michael Friedman   Golden, CO03:32:13.8 135475  55 Kelly Benefit Strategies-Optum
40217.43Carson Miller   Seattle, WA03:32:13.8 203931  101 Jelly Belly p/b Kenda
41219.51Sean Passage (7 - Cat1)   Bend, OR03:32:19.1 153756  129 Byrne Invent
42221.58Matthew Shackley   Las Vegas, NV03:32:23.2 245236  85 Team CES Racing
43Julio MOLLINDO   03:32:27.2  38 Full Circle Sports
44225.74Daniel Ramsey (8 - Cat1)   Los Angeles, CA03:32:27.2 29107  39 Full Circle Sports
45Cody CAMPBELL*   03:32:27.2  46 Hagens Berman
46229.89Julian Martinez   Santa Monica, CA03:32:27.2 214569  33 Fremont Bank Cycling Team
47231.97Tyler Brandt   Vallejo, CA03:32:27.2 210604  12 California Giant Berry Farms/S
48234.05Jeffrey Perrin   Lakewood, CO03:32:35.1 295788  92 Team Specialized Racing Junior
49236.13Frank Spiteri (9 - Cat1)   San Mateo, CA03:32:48.6 236118  63 Marc Pro - Strava
50238.20Michael Sherer   Boulder, CO03:32:55.0 232977  56 Kelly Benefit Strategies-Optum
51240.28Sergio Hernandez (6 - Pro)   San Pedro, CA03:32:57.1 201874  78 Now/MS Society
52242.36Peter Taylor (1 - Cat2)   Walnut Creek, CA03:32:57.1 219859  16 California Giant Berry Farms/S
53244.44Roman Kilun   Oakland, CA03:33:05.1 153790  61 Kenda 5 Hour Energy P/B GearGr
54246.51Chris Stastny   Vacaville, CA03:33:05.1 249743  14 California Giant Berry Farms/S
55248.59Michael Gil (2 - Cat2)   San Francisco, CA03:33:13.9 261220  43 Godspeed Courier
56250.67Matthew Carinio   San Luis Obispo, CA03:33:22.0 6109  126 ArtsCyclery.com/Wild Horse Win
57252.75Kenneth Hanson   San Diego, CA03:34:04.3 194969  50 Jelly Belly p/b Kenda
58254.83James Mattis   Mountain View, CA03:34:04.3 127344  13 California Giant Berry Farms/S
59Alastair LOUTIT*   03:34:04.3  52 Jelly Belly p/b Kenda
60258.98Mike Tettleton   La Verne, CA03:34:13.9 206298  41 Full Circle Sports
61261.06Emerson Oronte   Boulder, CO03:35:28.4 222542  49 Jelly Belly p/b Kenda
62263.14Gabe Varela (10 - Cat1)   Coeur D' Alene, ID03:35:28.4 249909  110 Yahoo! Cycling Team
63265.21Shane Buysse (11 - Cat1)   San Diego, CA03:35:28.4 271231  112 Yahoo! Cycling Team
64267.29Josh LaGrange   Bend, OR03:35:28.4 201330  28 Form Fitness
65269.37N/A   Tucson, AZ03:35:28.4 91005  107 Wonderful Pistachios Pro Cycli
66271.45Eric Riggs   Antelope, CA03:35:32.9 191302  116 Yahoo! Cycling Team
67273.52Joe Iannarelli   Vacaville, CA03:36:06.5 195783  113 Yahoo! Cycling Team
68275.60Benjamin Swedberg   Kent, WA03:38:37.4 200484  15 California Giant Berry Farms/S
69277.68Brandon Trafton (12 - Cat1)   Sacramento, CA03:38:37.4 240033  17 California Giant Berry Farms/S
70279.76Jesse Miller-Smith   Truckee, CA03:39:24.2 283869  69 Marc Pro - Strava
71281.83William (Billy) Crane   Mountain View, CA03:40:14.2 138129  102 Webcor/Alto Velo
72283.91Robert Evans (3 - Cat2)   Scotts Valley, CA03:40:47.2 72893  71 McGuire Cycling Team
73285.99Miles LaMon   San Luis Obispo, CA03:46:21.2 187271  111 Yahoo! Cycling Team
74288.07Michael Hernandez   Oakland, CA03:46:21.2 136641  44 Great Basin Imaging/Kinetic Cy
75290.15Victor Riquelme (7 - Pro)   Tucson, AZ03:46:24.2 282338  105 Wonderful Pistachios Pro Cycli
76292.22Adam Carr   Colchester, VT03:46:24.2 208854  29 Form Fitness
77294.30Elliot Jaramillo (13 - Cat1)   Burlingame, CA03:46:28.8 179930  74 McGuire Cycling Team
78296.38Thomas Faiers (8 - Pro)   Rocklin, CA03:46:32.7 337442  104 Wonderful Pistachios Pro Cycli
79298.46Timothy Farnham (9 - Pro)   San Francisco, CA03:46:32.7 198206  103 Wonderful Pistachios Pro Cycli
80300.53Taylor Bertrand-Barrett (14 - Cat1)   Sonoma, CA03:46:32.7 274643  22 Echeloncycle.com
81302.61Raffi Jilizian   Danville, CA03:46:32.7 187667  26 Form Fitness
82304.69Bernard Van Ulden   San Mateo, CA03:46:32.7 171819  51 Jelly Belly p/b Kenda
83306.77Logan Loader (15 - Cat1)   Felton, CA03:46:32.7 198542  83 RideClean p/b PatentIt.com
84308.84Dillon Clapp   Stevenson Ranch, CA03:46:32.7 6973  127 ArtsCyclery.com/Wild Horse Win
85310.92Aaron Schneider (16 - Cat1)   North Hills, CA03:46:32.7 266302  40 Full Circle Sports
86313.00Aaron Gallardo   Woodland Hills Ca03:46:42.0 160366  90 Team Helens
87315.08Thomas Soladay   Glendale, CA03:46:42.0 220775  59 Kelly Benefit Strategies-Optum
88317.15Daniel Farinha (17 - Cat1)   San Jose, CA03:46:42.0 240558  24 Firefighters Cycling
89319.23Nate Geoffrion (4 - Cat2)   Petaluma, CA03:46:42.0 280351  25 Firefighters Cycling
90321.31Nathan Freed   Tahoe City, CA03:46:42.0 86484  64 Marc Pro - Strava
91Austin ARGUELLO*   03:46:42.0  109 Yahoo! Cycling Team
92325.47Patrick Caro (18 - Cat1)   Claremont03:47:06.2 88582  35 Full Circle Sports
93327.54donald hahn (5 - Cat2)   Reno, NV03:47:06.2 280149  70 Marc Pro - Strava
94329.62Ian Moir   Long Beach, CA03:47:21.5 218004  115 Yahoo! Cycling Team
95331.70Alexi Grewal   Loveland, CO03:47:42.6 45400  120 ICCC
96333.78James LaBerge (19 - Cat1)   Napa, CA03:48:50.7 221376  96 Team Specialized Racing Junior
97335.85Andrew Bates   Evanston, IL03:51:25.6 145543  79 Olympia Orthopaedic Assc.
98337.93Alex Bowden (10 - Pro)   Solana Beach, CA03:57:51.6 245698  130 Team Type 1 - Sanofi-Aventis
99340.01Anthony Ferretti   Oroville, CA03:57:51.6 283185  20 Chico Corsa
100342.09Mark Deterline   Salt Lake City, UT03:57:51.6 43613  34 Fremont Bank Cycling Team
101344.16AJ Snovel   Sacramento, CA03:59:47.5 272559  132 Fremont Bank Cycling Team
102346.24John Bergmann (20 - Cat1)   Albany, CA03:59:47.5 187522  87 Team Clif Bar
103348.32Dean LaBerge   Napa, CA04:00:20.4 67041  99 Team Specialized Racing Master
104350.40Martin Acosta   East Palo Alto, CA04:01:35.5 291277  72 McGuire Cycling Team
105352.47Richard Pego   Los Angeles, CA04:06:58.3 41144  89 Team Helens
106354.55Jeffrey Galland   Paradise, CA04:10:44.0 127804  21 Chico Corsa
107356.63Eric Losak (21 - Cat1)   San Clemente04:12:47.8 175239  125 A Road Bike 4U Elite Team
108358.71Lawrence Nolan   Fremont, CA04:13:43.5 26205  97 Team Specialized Racing Master
109360.78Mark Marquez   Martinez, CA04:13:45.8 288881  30 Fremont Bank Cycling Team
110362.86Michael Jacques (22 - Cat1)   Portola Valley, CA04:15:18.6 72022  88 Team Clif Bar
111James STOUT*   04:25:49.0  122 Team Type 1 - Sanofi-Aventis
112367.02Jonathan Teeter   Guerneville, CA04:25:49.0 291414  119 Echelon MultiSport
113369.10Torey Philipp   El Dorado Hills, CA04:26:02.0 263055  95 Team Specialized Racing Junior
114371.17Brandon Correia   Alameda, CA04:52:56.0 188308  77 Metromint Cycling
115373.25Ryan MacDonald (6 - Cat2)   Martinez, CA04:59:16.0 160274  32 Fremont Bank Cycling Team
DNSMichael Jasinski (Cat1)   Rocklin, CA 269476  31 Fremont Bank Cycling Team
DNSAlan Adams   Bozeman, MT 198136  45 Hagens Berman
DNSChris Turner (Cat1)   Los Altos, CA 253101  65 Marc Pro - Strava
DNSJoe Dickerson   Los Gatos, CA 306664  73 McGuire Cycling Team
DNScoulton hartrich   Juno Beach, FL 286536  86 Team Chemstar p/b United Healt
DNSEric Sammuli   Escondido, CA 256258  124 A Road Bike 4U Elite Team
DNSRahsaan Bahati   Compton 116625  128 Bahati Foundation Pro Cycling
DNFKris Lunning   San Rafael, CA 121729  68 Marc Pro - Strava
DNFDavid McCook   Tampa Fl 66627  75 McGuire Cycling Team
DNFConnor Spencer   San Francisco, CA 256539  76 Metromint Cycling
DNFJustin Williams   Los Angeles 197316  80 Predator Cycling
DNFChristopher Lyman   Napa, CA 267171  91 Team Specialized Racing Master
DNFWilliam Zellmer   Missoula, MT 225407  93 Team Specialized Racing Junior
DNFDavid Benkoski   Menlo Park, CA 271685  94 Team Specialized Racing Junior
DNFColby Elliot (Cat1)   San Diego , CA 203446  118 Swamis Cycling

Women - Cat1/2/3

 Place Points NameCity, StateTime USAC #BibTeam
1160.46Amanda Miller   Fort Collins, CO02:45:31.0 228513  202 Team HTC-Highroad
2166.61Flavia Oliveira   Livermore, CA02:45:33.0 224767  251 Wells Fargo Racing
3172.76Alison Starnes   Mill Valley, CA02:45:33.0 266806  204 Peanut Butter & Co. TWENTY12
4178.91Megan Guarnier   Mountain View, CA02:45:33.0 210981  219 Team TIBCO/To The Top
5185.06Tayler Wiles   Fairfax, CA02:45:38.0 289582  205 Peanut Butter & Co. TWENTY12
6191.21Kristin McGrath   Boise, ID02:45:38.0 247577  209 Peanut Butter & Co. TWENTY12
7197.36Lindsay Myers   Loma Linda, CA02:45:38.0 272063  242 Chico Corsa
8203.51susannah breen   Pleasant Hill, CA02:45:53.0 251128  243 Fremont Bank Cycling Team
9209.67Carmen Small   Durango, CO02:45:53.0 229709  221 Team TIBCO/To The Top
10Emily COLLINS*   02:45:53.0  226 Vanderkitten-Focus
11Pascale Maria SCHNIDER   02:45:53.0  240 RED Racing
12228.12Emily Kachorek   Sacramento, CA02:45:53.0 167636  249 Primal/ Map My Ride
13234.27Ruth Winder   Lafayette, CA02:45:57.0 273081  245 HDR p/b Lomdardi Sports
14240.42Jane Despas   Menlo Park, CA02:46:15.0 105201  238 Yahoo! Cycling Team
15246.57Liza Rachetto   Los Altos, CA02:46:15.0 145511  248 Primal/ Map My Ride
16252.72Elizabeth Newell   Oakland, CA02:46:15.0 252152  244 Fremont Bank Cycling Team
17258.88Alisha Welsh   Tucson, AZ02:46:15.0 276369  211 Peanut Butter & Co. TWENTY12
18265.03Peggy LeGrand (1 - Cat2)   Ladson, SC02:46:26.0 272836  225 US Military
19271.18Olivia Dillon   Fairfax, CA02:46:26.0 232172  207 Peanut Butter & Co. TWENTY12
20277.33Ally Stacher   Asheville, NC02:46:32.0 258102  201 Team HTC-Highroad
21283.48Molly Van Houweling   Berkeley, CA02:46:32.0 201051  212 Metromint Cycling
22Jazzy HURIKINO*   02:46:34.0  228 Vanderkitten-Focus
23295.78Rebecca Rising (2 - Cat2)   Yosemite, CA02:46:48.0 197841  215 Metromint Cycling
24Rebecca WERNER*   02:46:58.0  235 Webcor/Alto Velo
25308.09Michelle Melka   Baltimore, MD02:47:14.0 302454  216 RED Racing
26314.24Mary Elizabeth Maroon   Sacramento, CA02:48:06.0 219555  234 Webcor/Alto Velo
27320.39Amy McGuire   Jamaica Plain, MA02:48:42.0 221594  237 Wheelworks Racing
28Ina-yoko TEUTENBERG   02:49:44.0  200 Team HTC-Highroad
29332.69Lauren Tamayo   Asheville, NC02:52:31.0 103456  210 Peanut Butter & Co. TWENTY12
30338.84Emily Thurston   San Pablo, CA02:53:42.0 128351  247 Missing Link/ 3rd Rail
31344.99Kendall Ryan   Ventura, CA02:55:36.0 186919  220 Team TIBCO/To The Top
32351.14Cari Higgins   Boulder, CO02:55:36.0 225441  208 Peanut Butter & Co. TWENTY12
33357.29Kaitlin Antonneau   Colorado Springs, CO02:55:42.0 200237  203 Peanut Butter & Co. TWENTY12
34363.45Vanessa Drigo   Charlotte, NC02:56:10.0 257356  227 Vanderkitten-Focus
35369.60Rikke Preisler   Redwood City, CA02:56:14.0 293725  214 Metromint Cycling
36375.75Courtney Dimpel (3 - Cat2)   Aptos, CA02:56:14.0 302140  241 Bike Station Aptos
37381.90Elis Bradshaw   Oakland, CA02:56:20.0 208125  223 Touchstone Climbing
38388.05Amanda Seigle   Citrus Heights, CA02:56:20.0 203755  213 Metromint Cycling
39394.20Kimberly Fong   Berkeley, CA02:56:20.0 238713  246 Michael David Winery Cycling T
40400.35Coryn Rivera   Tustin, CA02:56:20.0 207432  206 Peanut Butter & Co. TWENTY12
41406.50Martina Patella   Oakland, CA02:56:33.0 195334  218 RED Racing
42412.66Marissa Axell   El Cerrito, CA02:56:47.0 269569  224 Touchstone Climbing
43418.81Emily Foxman   Mountain View, CA02:56:47.0 255430  232 Webcor/Alto Velo
44424.96Juliette Olson   Cloverdale, CA02:57:23.0 297368  217 RED Racing
45431.11Starla Teddergreen   Portland, OR03:10:03.0 202033  230 Vanderkitten-Focus
46437.26Ruste Parker   Fresno, CA03:11:56.0 304436  231 Velocity Valley Women
47443.41Margaret Jones   Chico, CA03:22:01.0 286593  250 Chico Corsa
DNSCarlee Taylor   Pescadero, CA 334432  222 Team TIBCO/To The Top
DNSHaley Juno-Galdes (Cat2)   Menlo Park, CA 232473  233 Webcor/Alto Velo
DNFMaura Kinsella (Cat2)   Boulder, CO 289951  229 Vanderkitten-Focus
DNFJane Wolcott (Cat2)   Menlo Park, CA 294264  236 Webcor/Alto Velo
DNFPatricia Dowd   Bozeman, MT 262121  239 Team Riverstone

Report missing or incorrect license numbers

Volkswagen
USACDFCUOREShimanoBonk BreakerSpySierra Nevada
UCI USA Cycling is the official governing body for all disciplines of competitive cycling in the United States. The 501c3, membership-based organization aims both to achieve sustained success in international cycling competition and to grow competitive cycling in America while delivering an exceptional customer experience.
View Children's Online Privacy Protection Policy
US Olympic Committee